Location: Boiro
(42.6475°N, 8.8834°W)
Time: 03:32:42
(UTC+01:00)

Vanguard 1 Rocket - Pass Details

Date: 15 December 2021
Orbit: 651 x 4224 km, 34.3° (Epoch: 21 January)

Event Time Altitude Azimuth Distance (km) Brightness Sun altitude
Rises 01:19:19 0° 230° (SW) 3,225 - -70.5°
Reaches altitude 10° 01:21:30 10° 220° (SW) 2,488 - -70.5°
Maximum altitude 01:26:44 35° 155° (SSE) 1,779 - -70.6°
Drops below altitude 10° 01:35:23 10° 95° (E) 4,169 - -70.6°
Exits shadow 01:40:06 - 88° (E) 5,735 11.5 -70.5°
Sets 01:40:16 0° 88° (E) 5,790 11.5 -70.5°
